[[{"header":{"parameterUnit":"m.s-1","parameterCategory":1,"la1":30.2991,"la2":30.254,"lo1":-89.0895,"lo2":-89.0444,"dy":0.0017,"dx":0.0017,"nx":28,"ny":28,"refTime":"2025-08-28T21:00:00:Z","depth":0,"parameterNumber":2,"parameterNumberName":"U-component_of_WINDS"},"data":[0,0,0,0,0,0,0,0,0,0,0,0,0,0,0,0,0,0,0,0,0,0,0,0,0,0,0,0,0,0,0,0,0,0,0,0,0,0,0,0,0,0,0,0,0,0,0,0,0,0,0,0,0,0,0,0,0,0,-1.9549,-1.9549,0,-1.9538,-1.9538,-1.9538,-1.9513,-1.9512,-1.9512,-1.9511,-1.9501,-1.9501,-1.9501,0,0,0,0,0,0,0,0,0,0,0,0,0,-1.9549,-1.9549,-1.9549,-1.9549,-1.9548,-1.9538,-1.9538,-1.9537,-1.9513,-1.9512,-1.9512,-1.9511,-1.9501,-1.9501,-1.9501,0,0,0,0,0,0,0,0,0,0,0,0,0,-1.9545,-1.9549,-1.9549,-1.9535,-1.9534,-1.9538,-1.9538,-1.9537,-1.9513,-1.9512,-1.9512,-1.9511,-1.9501,-1.9501,-1.9501,-1.9518,0,0,-1.9502,-1.9502,0,0,0,0,0,0,0,0,-1.9545,-1.9545,-1.9537,-1.9536,-1.9534,-1.9526,-1.9534,-1.9531,-1.9513,-1.9521,-1.9511,-1.951,-1.951,-1.9509,-1.9509,-1.9518,-1.9517,-1.9502,-1.9502,-1.9502,-1.9502,0,0,0,0,0,0,0,-1.9545,-1.9545,-1.9544,-1.9537,-1.9535,-1.9529,-1.9528,-1.9533,-1.952,-1.952,-1.9518,-1.9517,-1.9509,-1.9509,-1.9508,-1.9517,-1.9502,-1.9502,-1.9502,-1.9503,-1.9539,-1.954,0,0,0,0,0,0,-1.9547,-1.9545,-1.9545,-1.9544,-1.9538,-1.953,-1.9528,-1.9529,-1.952,-1.9517,-1.9518,-1.9516,-1.9509,-1.9508,-1.9508,-1.9526,-1.9502,-1.9503,-1.9503,-1.9538,-1.9539,-1.954,0,0,0,0,0,0,-1.9548,-1.9548,-1.9545,-1.9544,-1.9543,-1.9531,-1.9532,-1.953,-1.9529,-1.9518,-1.9516,-1.952,-1.9508,-1.9508,-1.9516,-1.9526,-1.9503,-1.9503,-1.9537,-1.9538,-1.9539,-1.9564,0,0,0,0,0,0,-1.9548,-1.9548,-1.9554,-1.9545,-1.9544,-1.9553,-1.9533,-1.953,-1.953,-1.9527,-1.9519,-1.9517,-1.9507,-1.9515,-1.9516,-1.9526,-1.9503,-1.9536,-1.9538,-1.9539,-1.9562,-1.9566,-1.9569,0,0,0,0,0,-1.9548,-1.9561,-1.9554,-1.9554,-1.9551,-1.9553,-1.9553,-1.9541,-1.9531,-1.9537,-1.953,-1.9518,-1.9525,-1.9516,-1.9517,-1.9527,-1.9535,-1.9537,-1.9539,-1.956,-1.9565,-1.9569,0,0,0,0,0,0,-1.9572,-1.956,-1.9552,-1.9563,-1.9559,-1.9549,-1.9556,-1.9546,-1.9546,-1.9543,-1.9529,-1.9527,-1.9537,-1.9533,-1.9524,-1.9543,-1.9528,-1.953,-1.9544,-1.9549,-1.9552,-1.9552,-1.9503,0,0,0,0,0,-1.9579,-1.9582,-1.9571,-1.9582,-1.958,-1.9569,-1.957,-1.9561,-1.9557,-1.9555,-1.9548,-1.9545,-1.9546,-1.9548,-1.9548,-1.9562,-1.9559,-1.9569,-1.9573,-1.9575,-1.9577,-1.9583,-1.9587,-1.9546,-1.9546,-1.9546,0,0,-1.9592,-1.9586,-1.9589,-1.9586,-1.9583,-1.9586,-1.9568,-1.9572,-1.9574,-1.9556,-1.9562,-1.9558,-1.9553,-1.9564,-1.9568,-1.9561,-1.9588,-1.9578,-1.958,-1.958,-1.9585,-1.9589,-1.9592,-1.9547,-1.9547,-1.9546,0,0,-1.9619,-1.9615,-1.9623,-1.9619,-1.9614,-1.9606,-1.9609,-1.96,-1.9596,-1.9603,-1.9589,-1.9592,-1.9595,-1.9592,-1.9591,-1.9617,-1.9605,-1.9618,-1.9635,-1.9641,-1.9644,-1.9647,-1.9655,-1.9658,-1.962,-1.962,-1.962,0,-1.9636,-1.964,-1.9628,-1.9633,-1.9632,-1.9616,-1.9624,-1.9622,-1.9617,-1.9617,-1.9609,-1.9612,-1.9608,-1.9617,-1.9624,-1.9624,-1.9625,-1.9618,-1.9645,-1.9647,-1.965,-1.9657,-1.9661,-1.9621,-1.9621,-1.9621,-1.9621,0,-1.9662,-1.9665,-1.9672,-1.9667,-1.9668,-1.9675,-1.9664,-1.9665,-1.9657,-1.9651,-1.9658,-1.9652,-1.9651,-1.9653,-1.9646,-1.9662,-1.9657,-1.9647,-1.9632,-1.9655,-1.9662,-1.9665,-1.9623,-1.9623,-1.9622,-1.9622,0,0,-1.9701,-1.969,-1.9693,-1.9691,-1.9684,-1.9686,-1.9693,-1.9692,-1.9693,-1.9691,-1.9695,-1.9699,-1.969,-1.9688,-1.968,-1.9686,-1.9706,-1.9675,-1.9675,-1.968,-1.9722,-1.9728,-1.9732,-1.9699,-1.97,-1.97,-1.9722,0,-1.9724,-1.9733,-1.9723,-1.9734,-1.9737,-1.9722,-1.9728,-1.9724,-1.9719,-1.972,-1.9714,-1.9716,-1.9705,-1.9704,-1.9709,-1.9702,-1.9714,-1.9701,-1.9702,-1.9702,-1.9702,-1.9736,-1.9742,-1.9763,-1.9725,-1.9725,-1.9726,0,-1.9752,-1.9751,-1.9762,-1.9755,-1.9756,-1.9761,-1.9759,-1.9761,-1.9757,-1.9752,-1.9752,-1.9742,-1.9747,-1.9734,-1.9742,-1.9733,-1.9733,-1.973,-1.9731,-1.9729,-1.9714,-1.9733,-1.977,-1.9772,-1.973,-1.973,-1.9729,0,-1.9778,-1.9779,-1.9786,-1.9785,-1.9777,-1.9781,-1.9777,-1.9773,-1.9773,-1.9772,-1.9772,-1.9772,-1.9771,-1.9771,-1.9762,-1.9754,-1.977,-1.9756,-1.9766,-1.9766,-1.9768,-1.9768,-1.9804,-1.9772,-1.9772,-1.9772,-1.9772,0,-1.9804,-1.9811,-1.9798,-1.9802,-1.981,-1.9798,-1.9806,-1.9802,-1.9798,-1.9801,-1.9789,-1.9792,-1.978,-1.9782,-1.9775,-1.9782,-1.9782,-1.9778,-1.9776,-1.9778,-1.9779,-1.9777,-1.9775,-1.9772,-1.9772,-1.9772,-1.9772,0,-1.9833,-1.9825,-1.9831,-1.9823,-1.9821,-1.9827,-1.982,-1.9824,-1.9818,-1.9822,-1.9822,-1.9813,-1.9815,-1.9806,-1.9806,-1.9801,-1.9811,-1.9807,-1.9812,-1.981,-1.9819,-1.9818,-1.9854,-1.9858,-1.9825,-1.9825,-1.9825,0,-1.9849,-1.9854,-1.9847,-1.9848,-1.9846,-1.9848,-1.9848,-1.9838,-1.9838,-1.9834,-1.9838,-1.9839,-1.9839,-1.9842,-1.9835,-1.9836,-1.9831,-1.9843,-1.983,-1.9833,-1.9829,-1.9828,-1.9828,-1.9845,-1.9846,-1.9846,-1.9846,0,-1.9879,-1.9874,-1.9875,-1.9874,-1.9874,-1.9873,-1.9871,-1.9873,-1.9862,-1.9863,-1.9864,-1.9864,-1.9865,-1.9865,-1.9864,-1.9861,-1.9852,-1.9851,-1.9853,-1.9854,-1.9856,-1.9854,-1.9817,-1.9849,-1.9849,-1.9849,-1.9849,-1.9849,-1.9901,-1.9905,-1.99,-1.9901,-1.9898,-1.9897,-1.99,-1.9894,-1.9895,-1.9894,-1.9889,-1.9891,-1.9887,-1.9885,-1.9883,-1.9885,-1.9879,-1.9882,-1.9882,-1.9883,-1.9884,-1.9858,-1.9885,-1.9885,-1.9884,-1.9884,-1.9884,0,-1.9928,-1.9925,-1.9926,-1.9923,-1.9924,-1.9916,-1.9914,-1.9915,-1.9917,-1.9915,-1.9915,-1.9916,-1.9917,-1.9911,-1.9911,-1.9913,-1.9909,-1.9913,-1.9912,-1.9912,-1.989,-1.9887,-1.9917,-1.9917,-1.9917,-1.9917,-1.9917,-1.9917,-1.9943,-1.9948,-1.9943,-1.9948,-1.9944,-1.9946,-1.9946,-1.9944,-1.9942,-1.9944,-1.9945,-1.9941,-1.9937,-1.9936,-1.9937,-1.9935,-1.9935,-1.994,-1.9937,-1.9916,-1.9913,-1.991,-1.9908,-1.9941,-1.9941,-1.9958,-1.9959,-1.9959]},{"header":{"parameterUnit":"m.s-1","parameterCategory":1,"la1":30.2991,"la2":30.254,"lo1":-89.0895,"lo2":-89.0444,"dy":0.0017,"dx":0.0017,"nx":28,"ny":28,"refTime":"2025-08-28T21:00:00:Z","depth":0,"parameterNumber":3,"parameterNumberName":"V-component_of_WINDS"},"data":[0,0,0,0,0,0,0,0,0,0,0,0,0,0,0,0,0,0,0,0,0,0,0,0,0,0,0,0,0,0,0,0,0,0,0,0,0,0,0,0,0,0,0,0,0,0,0,0,0,0,0,0,0,0,0,0,0,0,2.1668,2.1666,0,2.1463,2.1461,2.1459,2.1323,2.1322,2.1321,2.1321,2.1104,2.1099,2.1095,0,0,0,0,0,0,0,0,0,0,0,0,0,2.1935,2.1931,2.1668,2.1665,2.1663,2.1464,2.1461,2.1458,2.1323,2.1322,2.1321,2.132,2.1106,2.11,2.1094,0,0,0,0,0,0,0,0,0,0,0,0,0,2.1784,2.193,2.1668,2.1572,2.1561,2.1464,2.1461,2.1457,2.1324,2.1322,2.1321,2.132,2.1108,2.1101,2.1093,2.1074,0,0,2.1071,2.1067,0,0,0,0,0,0,0,0,2.1792,2.1774,2.1588,2.1578,2.1566,2.1418,2.1475,2.1329,2.1324,2.1414,2.1321,2.1319,2.1209,2.1193,2.1158,2.1064,2.1055,2.107,2.1065,2.1062,2.106,0,0,0,0,0,0,0,2.1803,2.1782,2.1587,2.1586,2.1572,2.1536,2.1513,2.1447,2.1321,2.1406,2.1395,2.1373,2.1203,2.1165,2.1151,2.1051,2.107,2.1064,2.1059,2.1056,2.0931,2.0932,0,0,0,0,0,0,2.183,2.1792,2.1593,2.1581,2.1679,2.1533,2.1507,2.1466,2.1321,2.1298,2.1375,2.1368,2.1178,2.116,2.1143,2.111,2.1062,2.1055,2.1051,2.093,2.0931,2.0932,0,0,0,0,0,0,2.1836,2.1813,2.1601,2.1683,2.1654,2.153,2.1485,2.1463,2.1425,2.1298,2.1274,2.136,2.1177,2.1154,2.1093,2.1101,2.1052,2.1045,2.0928,2.093,2.0931,2.1046,0,0,0,0,0,0,2.1844,2.1816,2.1809,2.1684,2.165,2.1557,2.1486,2.146,2.1414,2.1403,2.1278,2.1256,2.1174,2.1104,2.1085,2.109,2.104,2.0927,2.0929,2.0931,2.1041,2.1051,2.106,0,0,0,0,0,2.1854,2.1848,2.181,2.1787,2.1639,2.1557,2.1537,2.1445,2.1415,2.1406,2.1324,2.126,2.1104,2.1099,2.1077,2.1079,2.0926,2.0928,2.0931,2.1036,2.1049,2.106,0,0,0,0,0,0,2.1975,2.183,2.1786,2.174,2.1662,2.1535,2.152,2.1462,2.1389,2.1382,2.1268,2.1241,2.1191,2.1129,2.1126,2.1053,2.1007,2.1005,2.1095,2.1106,2.1116,2.1131,2.1033,0,0,0,0,0,2.1998,2.1946,2.182,2.1792,2.1755,2.1645,2.1606,2.1542,2.1456,2.1422,2.1335,2.1253,2.1184,2.1142,2.1072,2.1032,2.1001,2.1022,2.1032,2.1041,2.104,2.1012,2.102,2.094,2.094,2.094,0,0,2.2041,2.1955,2.1929,2.1814,2.1746,2.1693,2.1618,2.1565,2.1524,2.1413,2.135,2.1284,2.1184,2.1133,2.1106,2.108,2.1055,2.1044,2.1052,2.1046,2.1016,2.1023,2.103,2.0942,2.0942,2.0941,0,0,2.2093,2.2024,2.1992,2.1927,2.1826,2.1753,2.1746,2.1627,2.1579,2.1515,2.1431,2.1379,2.1265,2.1197,2.1147,2.1175,2.1112,2.1155,2.1205,2.118,2.1187,2.1191,2.12,2.1205,2.1155,2.1155,2.1156,0,2.2159,2.2078,2.1983,2.1935,2.1886,2.1786,2.1752,2.1692,2.1573,2.154,2.1513,2.1368,2.1293,2.1225,2.1232,2.1195,2.1182,2.1168,2.1194,2.1198,2.1201,2.1208,2.1212,2.1161,2.116,2.116,2.1159,0,2.2164,2.2109,2.2095,2.1985,2.1935,2.1894,2.1791,2.1751,2.1691,2.162,2.1556,2.1463,2.1373,2.1352,2.1292,2.1274,2.1261,2.1216,2.1167,2.1216,2.122,2.1222,2.1169,2.1167,2.1166,2.1164,0,0,2.2285,2.2125,2.2121,2.207,2.1952,2.1906,2.186,2.1774,2.1742,2.1663,2.1621,2.1527,2.1484,2.1428,2.136,2.1338,2.1365,2.1294,2.129,2.131,2.1338,2.1372,2.1377,2.1323,2.1323,2.1323,2.1346,0,2.2319,2.2234,2.2147,2.2091,2.2038,2.1943,2.1902,2.1825,2.1757,2.1701,2.1625,2.156,2.1509,2.1475,2.1449,2.1367,2.1368,2.1364,2.128,2.1278,2.1307,2.1379,2.1415,2.1441,2.1347,2.1347,2.1347,0,2.2347,2.2275,2.2215,2.2102,2.2076,2.2042,2.1956,2.1904,2.1813,2.1766,2.1705,2.1633,2.1577,2.1537,2.1458,2.1457,2.1417,2.1372,2.1371,2.1358,2.1315,2.1368,2.1447,2.1451,2.1349,2.1349,2.1349,0,2.244,2.2329,2.2278,2.2237,2.2105,2.2083,2.2026,2.1934,2.1888,2.1812,2.1781,2.1699,2.1654,2.1591,2.1499,2.1478,2.1429,2.1381,2.1386,2.1389,2.1379,2.1381,2.1453,2.1357,2.1357,2.1356,2.1356,0,2.2486,2.2453,2.2319,2.2288,2.2247,2.2147,2.2108,2.2043,2.1962,2.1915,2.1827,2.1784,2.1665,2.1607,2.1534,2.1479,2.146,2.1418,2.1399,2.1425,2.1431,2.1397,2.1392,2.1357,2.1357,2.1357,2.1357,0,2.2584,2.2493,2.2431,2.2311,2.228,2.2255,2.2151,2.2116,2.2045,2.1986,2.1966,2.1853,2.1781,2.1683,2.1579,2.153,2.1484,2.1455,2.1516,2.1504,2.1515,2.1515,2.1566,2.1567,2.1473,2.1474,2.1475,0,2.2618,2.2591,2.2469,2.2432,2.2379,2.2321,2.2274,2.2173,2.2128,2.2023,2.2,2.1922,2.1853,2.1742,2.1649,2.1569,2.1536,2.1559,2.1523,2.1551,2.1535,2.1537,2.1533,2.1568,2.157,2.1571,2.1572,0,2.269,2.2646,2.2583,2.2505,2.2452,2.2384,2.2313,2.2287,2.2171,2.2124,2.2051,2.1998,2.1894,2.1816,2.1724,2.1663,2.1598,2.1585,2.1581,2.1607,2.1644,2.1623,2.1539,2.1583,2.1582,2.1581,2.1581,2.158,2.2755,2.2726,2.2636,2.2569,2.2505,2.244,2.2402,2.2326,2.2264,2.2172,2.2116,2.2045,2.1953,2.1824,2.1766,2.1707,2.1681,2.1677,2.1675,2.1675,2.1684,2.1655,2.169,2.1689,2.1689,2.1688,2.1688,0,2.2821,2.2759,2.2698,2.2602,2.2548,2.2495,2.2412,2.2371,2.231,2.2231,2.2167,2.2081,2.2006,2.1908,2.1825,2.1797,2.1765,2.1778,2.1778,2.1765,2.1712,2.1723,2.1805,2.1805,2.1805,2.1805,2.1805,2.1805,2.2849,2.2797,2.2743,2.2658,2.2594,2.2526,2.2483,2.2422,2.2359,2.2269,2.2207,2.2144,2.2057,2.1967,2.1895,2.1868,2.1841,2.1864,2.1827,2.1779,2.1769,2.1759,2.1768,2.1859,2.1859,2.1885,2.1885,2.1885]}]]